EW4100 Weather Reports


Display with metric or nautical units.
time (UTC)temp
F
wind
direction
speed
MPH
gust
MPH
rain 1hr
in
rain 24hr
in
rain mn
in
humidity
%
barometer
mb
20260503203554 77 13 3.0 8.0 0.00 0.00 0.00 44 1012.6
20260503203055 76 321 1.0 8.0 0.00 0.00 0.00 45 1012.6
20260503202555 76 301 3.0 8.0 0.00 0.00 0.00 45 1012.7
20260503202055 76 236 2.0 8.0 0.00 0.00 0.00 45 1012.7
20260503201558 75 0 2.0 7.0 0.00 0.00 0.00 47 1012.7
20260503201051 75 0 1.0 6.0 0.00 0.00 0.00 48 1012.8
20260503200555 74 341 3.0 6.0 0.00 0.00 0.00 47 1012.9
20260503200056 74 0 1.0 8.0 0.00 0.00 0.00 47 1013.0
20260503195555 74 71 2.0 9.0 0.00 0.00 0.00 47 1013.0
20260503195055 74 324 3.0 9.0 0.00 0.00 0.00 49 1013.2
20260503194554 73 276 2.0 6.0 0.00 0.00 0.00 50 1013.2
20260503194055 73 286 2.0 6.0 0.00 0.00 0.00 53 1013.3
20260503193059 72 5 2.0 6.0 0.00 0.00 0.00 51 1013.5
20260503192555 72 82 0.0 6.0 0.00 0.00 0.00 51 1013.6
20260503192058 72 271 3.0 6.0 0.00 0.00 0.00 52 1013.7
20260503191553 71 318 2.0 8.0 0.00 0.00 0.00 51 1013.7
20260503191058 71 221 4.0 10.0 0.00 0.00 0.00 51 1013.7
20260503190635 71 360 4.0 10.0 0.00 0.00 0.00 51 1013.8
20260503190057 71 318 3.0 9.0 0.00 0.00 0.00 51 1013.8
20260503185554 71 213 1.0 10.0 0.00 0.00 0.00 50 1013.8
20260503185055 70 342 4.0 10.0 0.00 0.00 0.00 51 1013.9
20260503184606 70 0 1.0 10.0 0.00 0.00 0.00 53 1013.9
20260503184054 70 322 2.0 8.0 0.00 0.00 0.00 53 1014.0
20260503183555 69 323 3.0 8.0 0.00 0.00 0.00 54 1014.0
20260503183054 69 244 1.0 6.0 0.00 0.00 0.00 54 1014.0
20260503182555 69 348 2.0 6.0 0.00 0.00 0.00 53 1014.1
20260503182055 68 5 2.0 6.0 0.00 0.00 0.00 52 1014.1
20260503181552 68 328 2.0 6.0 0.00 0.00 0.00 53 1014.1
20260503181055 68 13 2.0 8.0 0.00 0.00 0.00 55 1014.2
20260503180556 68 0 0.0 8.0 0.00 0.00 0.00 56 1014.1
20260503180058 68 162 2.0 8.0 0.00 0.00 0.00 54 1014.3
20260503175555 68 272 2.0 8.0 0.00 0.00 0.00 54 1014.4
20260503175055 67 286 2.0 8.0 0.00 0.00 0.00 54 1014.4
20260503174607 67 300 1.0 6.0 0.00 0.00 0.00 56 1014.3
20260503174114 67 352 1.0 7.0 0.00 0.00 0.00 58 1014.4
20260503173555 67 217 3.0 7.0 0.00 0.00 0.00 58 1014.5
20260503173106 66 325 1.0 5.0 0.00 0.00 0.00 58 1014.6
20260503172554 66 327 1.0 6.0 0.00 0.00 0.00 58 1014.6
20260503172054 66 327 2.0 7.0 0.00 0.00 0.00 59 1014.6
20260503171603 65 5 2.0 7.0 0.00 0.00 0.00 59 1014.6
20260503171055 64 260 1.0 8.0 0.00 0.00 0.00 61 1014.7
20260503170555 64 318 0.0 8.0 0.00 0.00 0.00 61 1014.7
20260503150555 53 295 0.0 3.0 0.00 0.00 0.00 84 1015.0
20260503131054 50 0 0.0 0.0 0.00 0.00 0.00 85 1014.8
20260503130552 50 0 0.0 0.0 0.00 0.00 0.00 85 1014.7
20260503130103 50 0 0.0 0.0 0.00 0.00 0.00 86 1014.6
20260503110554 51 0 0.0 0.0 0.00 0.00 0.00 82 1015.1
20260503100110 52 0 0.0 0.0 0.00 0.00 0.00 80 1015.1
20260503081606 54 0 0.0 0.0 0.00 0.00 0.00 76 1015.2
20260503081055 54 0 0.0 0.0 0.00 0.00 0.00 76 1015.2
20260503080558 54 0 0.0 0.0 0.00 0.00 0.00 76 1015.2
20260503072555 54 0 0.0 0.0 0.00 0.00 0.00 75 1015.0
20260503072055 55 0 0.0 0.0 0.00 0.00 0.00 74 1015.0
20260503071555 55 0 0.0 0.0 0.00 0.00 0.00 73 1015.0
20260503071056 55 0 0.0 0.0 0.00 0.00 0.00 74 1015.0
20260503070551 55 0 0.0 0.0 0.00 0.00 0.00 73 1015.0
20260503055055 58 0 0.0 0.0 0.00 0.00 0.00 70 1015.0
20260503054552 58 0 0.0 0.0 0.00 0.00 0.00 68 1014.9
20260503054055 58 0 0.0 0.0 0.00 0.00 0.00 68 1014.9
20260503053555 58 0 0.0 0.0 0.00 0.00 0.00 66 1015.0
20260503053055 58 0 0.0 0.0 0.00 0.00 0.00 65 1014.9
20260503052558 58 0 0.0 0.0 0.00 0.00 0.00 64 1015.0
20260503052051 59 0 0.0 0.0 0.00 0.00 0.00 65 1014.9
20260503051555 59 0 0.0 0.0 0.00 0.00 0.00 65 1014.9
20260503051100 59 0 0.0 0.0 0.00 0.00 0.00 64 1015.0
20260503050554 59 0 0.0 0.0 0.00 0.00 0.00 64 1015.0
20260503050055 60 0 0.0 0.0 0.00 0.00 0.00 63 1014.9
20260503045554 60 0 0.0 0.0 0.00 0.00 0.00 63 1014.9
20260503045055 60 0 0.0 0.0 0.00 0.00 0.00 62 1014.8
20260503044555 60 0 0.0 0.0 0.00 0.00 0.00 61 1014.7
20260503044055 61 0 0.0 0.0 0.00 0.00 0.00 60 1014.7
20260503043553 61 0 0.0 0.0 0.00 0.00 0.00 59 1014.6
20260503043051 61 0 0.0 0.0 0.00 0.00 0.00 58 1014.6
20260503042555 62 0 0.0 0.0 0.00 0.00 0.00 57 1014.5
20260503042055 62 0 0.0 0.0 0.00 0.00 0.00 57 1014.4
20260503041554 62 0 0.0 0.0 0.00 0.00 0.00 56 1014.5
20260503041055 62 0 0.0 0.0 0.00 0.00 0.00 57 1014.3
20260503040554 63 0 0.0 0.0 0.00 0.00 0.00 56 1014.3
20260503040059 63 0 0.0 0.0 0.00 0.00 0.00 56 1014.2
20260503035555 63 0 0.0 0.0 0.00 0.00 0.00 55 1014.1
20260503035055 64 0 0.0 0.0 0.00 0.00 0.00 55 1014.1
20260503034607 64 0 0.0 0.0 0.00 0.00 0.00 55 1014.0
20260503034055 64 0 0.0 0.0 0.00 0.00 0.00 54 1014.0
20260503033557 65 0 0.0 0.0 0.00 0.00 0.00 54 1013.8
20260503033057 65 0 0.0 0.0 0.00 0.00 0.00 54 1013.8
20260503032554 65 0 0.0 1.0 0.00 0.00 0.00 55 1013.7
20260503032053 66 0 0.0 2.0 0.00 0.00 0.00 55 1013.8
20260503031555 66 0 0.0 4.0 0.00 0.00 0.00 55 1013.7
20260503031054 66 0 0.0 4.0 0.00 0.00 0.00 57 1013.6
20260503030554 67 0 1.0 4.0 0.00 0.00 0.00 50 1013.5
20260503030053 67 299 0.0 3.0 0.00 0.00 0.00 57 1013.5
20260503025555 67 323 0.0 1.0 0.00 0.00 0.00 53 1013.5
20260503025055 68 0 0.0 1.0 0.00 0.00 0.00 55 1013.6
20260503024555 68 0 0.0 1.0 0.00 0.00 0.00 53 1013.5
20260503024055 69 0 0.0 2.0 0.00 0.00 0.00 55 1013.5
20260503023554 69 0 0.0 8.0 0.00 0.00 0.00 53 1013.5
20260503023053 69 0 2.0 9.0 0.00 0.00 0.00 48 1013.4
20260503022554 69 0 1.0 9.0 0.00 0.00 0.00 48 1013.3
20260503022057 70 11 1.0 9.0 0.00 0.00 0.00 49 1013.4
20260503021553 70 0 1.0 5.0 0.00 0.00 0.00 52 1013.4
20260503021055 70 78 2.0 8.0 0.00 0.00 0.00 50 1013.4
20260503020555 70 339 2.0 8.0 0.00 0.00 0.00 50 1013.4
20260503020057 71 323 2.0 8.0 0.00 0.00 0.00 50 1013.3
20260503015556 71 306 2.0 6.0 0.00 0.00 0.00 51 1013.5
20260503015058 71 342 1.0 6.0 0.00 0.00 0.00 51 1013.4
20260503014715 71 316 2.0 11.0 0.00 0.00 0.00 51 1013.4
20260503014149 71 21 4.0 11.0 0.00 0.00 0.00 50 1013.4
20260503013610 71 320 2.0 8.0 0.00 0.00 0.00 51 1013.4
20260503013053 72 0 2.0 10.0 0.00 0.00 0.00 51 1013.4
20260503012557 72 360 2.0 10.0 0.00 0.00 0.00 50 1013.4
20260503012054 72 352 2.0 8.0 0.00 0.00 0.00 50 1013.4
20260503011555 72 0 2.0 9.0 0.00 0.00 0.00 50 1013.5
20260503011055 72 5 2.0 9.0 0.00 0.00 0.00 51 1013.5
20260503010554 72 279 3.0 9.0 0.00 0.00 0.00 50 1013.5
20260503010059 72 320 3.0 9.0 0.00 0.00 0.00 51 1013.5
20260503005555 72 0 2.0 6.0 0.00 0.00 0.00 52 1013.5
20260503005056 72 324 2.0 6.0 0.00 0.00 0.00 52 1013.6
20260503004553 72 320 2.0 10.0 0.00 0.00 0.00 51 1013.6
20260503004055 72 9 5.0 10.0 0.00 0.00 0.00 51 1013.6
20260503003555 72 5 4.0 10.0 0.00 0.00 0.00 52 1013.6
20260503003105 72 360 1.0 10.0 0.00 0.00 0.00 53 1013.6
20260503002555 72 352 3.0 10.0 0.00 0.00 0.00 53 1013.6
20260503002055 72 42 3.0 10.0 0.00 0.00 0.00 52 1013.5
20260503001610 73 338 3.0 9.0 0.00 0.00 0.00 52 1013.5
20260503001054 73 352 3.0 8.0 0.00 0.00 0.00 54 1013.6
20260503000556 73 5 2.0 10.0 0.00 0.00 0.00 53 1013.6
20260503000058 73 13 1.0 10.0 0.00 0.00 0.00 52 1013.7
20260502235554 73 51 1.0 10.0 0.00 0.00 0.00 53 1013.7
20260502235055 73 0 2.0 10.0 0.00 0.00 0.00 53 1013.8
20260502234559 73 352 3.0 10.0 0.00 0.00 0.00 53 1013.9
20260502234056 73 340 3.0 8.0 0.00 0.00 0.00 54 1014.0
20260502233556 73 40 2.0 8.0 0.00 0.00 0.00 53 1014.0
20260502233059 73 17 2.0 8.0 0.00 0.00 0.00 53 1014.1
20260502232555 72 288 3.0 8.0 0.00 0.00 0.00 54 1014.2
20260502232055 73 351 3.0 9.0 0.00 0.00 0.00 52 1014.3
20260502231603 73 299 2.0 9.0 0.00 0.00 0.00 54 1014.3
20260502231055 74 304 2.0 10.0 0.00 0.00 0.00 52 1014.4
20260502230555 73 97 4.0 10.0 0.00 0.00 0.00 52 1014.5
20260502230056 73 13 4.0 12.0 0.00 0.00 0.00 52 1014.6
20260502225554 72 352 4.0 12.0 0.00 0.00 0.00 52 1014.7
20260502225055 73 329 2.0 11.0 0.00 0.00 0.00 50 1014.7
20260502224553 73 19 4.0 11.0 0.00 0.00 0.00 50 1014.9
20260502224055 73 22 2.0 11.0 0.00 0.00 0.00 51 1014.8
20260502223555 72 284 0.0 11.0 0.00 0.00 0.00 52 1014.9
20260502223054 72 313 4.0 11.0 0.00 0.00 0.00 52 1015.0
20260502222558 72 0 1.0 12.0 0.00 0.00 0.00 53 1015.0
20260502222054 73 0 2.0 12.0 0.00 0.00 0.00 51 1015.1
20260502221555 72 265 2.0 12.0 0.00 0.00 0.00 53 1015.2
20260502221055 72 30 2.0 10.0 0.00 0.00 0.00 52 1015.3
20260502220555 72 25 2.0 10.0 0.00 0.00 0.00 52 1015.3
20260502220055 72 231 1.0 8.0 0.00 0.00 0.00 54 1015.4
20260502215555 72 0 1.0 9.0 0.00 0.00 0.00 54 1015.5
20260502215056 71 213 4.0 9.0 0.00 0.00 0.00 53 1015.6
20260502214603 71 284 3.0 10.0 0.00 0.00 0.00 56 1015.6
20260502214055 71 332 2.0 10.0 0.00 0.00 0.00 55 1015.6
20260502213552 71 248 2.0 10.0 0.00 0.00 0.00 56 1015.6
20260502213054 71 0 3.0 10.0 0.00 0.00 0.00 56 1015.6
20260502212552 70 309 3.0 10.0 0.00 0.00 0.00 57 1015.6
20260502212056 70 245 1.0 7.0 0.00 0.00 0.00 57 1015.6
20260502211556 70 0 1.0 8.0 0.00 0.00 0.00 59 1015.6
20260502211055 70 0 3.0 8.0 0.00 0.00 0.00 59 1015.7
20260502210555 70 35 2.0 8.0 0.00 0.00 0.00 58 1015.8
20260502210107 69 312 3.0 9.0 0.00 0.00 0.00 59 1015.9
20260502205556 69 352 2.0 9.0 0.00 0.00 0.00 60 1015.8
20260502205055 69 0 0.0 7.0 0.00 0.00 0.00 61 1015.9
20260502204553 68 0 2.0 10.0 0.00 0.00 0.00 65 1015.9
20260502204055 68 236 1.0 10.0 0.00 0.00 0.00 61 1015.9